Voltar ao catálogo

KUIPER-00156

AtivoComunicaçõesLEO
NORAD 65775·PAYLOAD·🇺🇸 United States

Lançado Sep 25, 2025 de Cape Canaveral Space Force Station

Loading…

Próximas Passagens (próximas 24 horas)

TLE

AtualizadoSource: CelesTrak SupGP

Época: Sep 14, 2026, 22:47 UTC

1 65775C 25217P   26257.94975694  .00003530  00000+0  46217-3 0  2572
2 65775  51.9013 268.7666 0000560  68.9811 265.7146 14.79917446    10

Acompanhe KUIPER-00156 em tempo real com AllMySat

Download on the App Store